Location: Newark
(13.6797°N, 8.5297°E)
Time: 12:49:22
(UTC+00:00)

SR - Pass Details

Date: 25 January 2020
Orbit: 576 x 880 km, 66.7° (Epoch: 28 February)

Event Time Altitude Azimuth Distance (km) Brightness Sun altitude
Rises 07:56:06 0° 333° (NNW) 3,196 ? 26.3°
Reaches altitude 10° 07:58:36 10° 330° (NNW) 2,220 ? 26.8°
Maximum altitude 08:03:33 59° 251° (WSW) 783 ? 27.9°
Drops below altitude 10° 08:08:04 10° 172° (S) 2,030 ? 28.8°
Sets 08:10:16 0° 168° (SSE) 2,897 ? 29.3°
